JQ1YUX-13 Tokyo Ota-ku JP current weather conditions

sailwx.info

Wind from 350

Air temperature 20.6° C
Dewpoint 19.9° C

Last reported at 2015-Aug-28 13:28 UTC.
Time now 2015-Aug-28 14:48 UTC

Location: N 35°35' E 139°40'.
View on Google Maps.

See reports from other nearby stations

  
Tides and Currents Weather Stations Pressure Air Temp Water Temp Dewpoint Dewpoint Depression Visibility Wind Speed Wind Dir Waves Ship Positions
date/time (UTC)wind fromknots sea level pressurealtimeterstation pressurevisibilityair tempwater tempwave heightnotes
2015-Aug-28 13:28 350 20.6
2015-Aug-28 13:23 329 0 gusting 5 20.6
2015-Aug-28 12:58 055 21.1
2015-Aug-28 12:53 336 1 gusting 5 21.1
2015-Aug-28 12:28 020 4 gusting 6 21.7
2015-Aug-28 12:23 334 21.7
2015-Aug-28 11:58 013 21.7
2015-Aug-28 11:53 049 3 gusting 5 21.7
2015-Aug-28 11:28 043 21.7
2015-Aug-28 11:23 21.7
2015-Aug-28 10:58 018 1 gusting 7 21.7
2015-Aug-28 10:53 011 21.7
2015-Aug-28 10:28 034 1 gusting 6 22.2
2015-Aug-28 10:23 055 22.2
2015-Aug-28 09:58 22.2
2015-Aug-28 09:53 009 0 gusting 1 22.2
2015-Aug-28 09:28 020 1 gusting 4 22.2
2015-Aug-28 09:23 029 22.2
2015-Aug-28 08:58 034 2 gusting 9 21.7
2015-Aug-28 08:53 005 21.7
2015-Aug-28 08:28 024 22.8
2015-Aug-28 08:23 036 3 gusting 6 22.8
2015-Aug-28 07:58 019 22.8
2015-Aug-28 07:53 026 3 gusting 4 22.8
2015-Aug-28 07:28 328 3 gusting 5 22.8
2015-Aug-28 07:23 028 2 gusting 4 22.8
2015-Aug-28 06:58 021 1 gusting 6 22.8
2015-Aug-28 06:53 011 1 gusting 1 22.8
2015-Aug-28 06:28 045 22.8
2015-Aug-28 06:23 029 2 gusting 7 22.8
2015-Aug-28 05:58 057 22.8
2015-Aug-28 05:53 022 4 gusting 6 22.8
2015-Aug-28 05:28 018 5 gusting 7 22.8
2015-Aug-28 05:23 22.8
2015-Aug-28 04:58 350 2 gusting 4 22.8
2015-Aug-28 04:53 005 2 gusting 3 22.8
2015-Aug-28 04:28 022 1 gusting 4 22.8
2015-Aug-28 04:23 026 4 gusting 6 22.8
2015-Aug-28 03:58 017 4 gusting 8 22.8
2015-Aug-28 03:53 029 2 gusting 9 22.8
2015-Aug-28 03:28 025 3 gusting 6 23.3
2015-Aug-28 03:23 026 23.3
2015-Aug-28 02:58 016 5 gusting 6 23.3
2015-Aug-28 02:53 017 3 gusting 7 23.3
2015-Aug-28 02:28 350 4 gusting 7 22.8
2015-Aug-28 02:23 033 2 gusting 6 22.8
2015-Aug-28 01:58 014 0 gusting 7 23.3
2015-Aug-28 01:53 348 4 gusting 9 23.3
2015-Aug-28 01:28 015 1 gusting 7 22.8
2015-Aug-28 01:23 028 3 gusting 6 22.8
2015-Aug-28 00:58 030 22.8
2015-Aug-28 00:53 035 22.2
2015-Aug-28 00:28 332 2 gusting 6 22.2
2015-Aug-28 00:23 348 2 gusting 4 22.2
2015-Aug-27 23:58 311 3 gusting 6 22.2
2015-Aug-27 23:53 349 1 gusting 5 22.2
2015-Aug-27 23:28 342 1 gusting 0 21.7
2015-Aug-27 23:23 013 2 gusting 6 21.7
2015-Aug-27 22:58 306 3 gusting 5 21.1
2015-Aug-27 22:53 005 1 21.1
2015-Aug-27 22:28 355 1 gusting 0 20.6
2015-Aug-27 22:23 323 3 gusting 8 20.6
2015-Aug-27 21:58 035 20.6
2015-Aug-27 21:53 015 2 gusting 7 20.6
2015-Aug-27 21:28 336 1 gusting 6 20.6
2015-Aug-27 21:23 333 1 gusting 6 20.6
2015-Aug-27 20:58 337 2 gusting 6 21.1
2015-Aug-27 20:53 21.1
2015-Aug-27 20:28 331 21.7
2015-Aug-27 20:23 333 2 gusting 6 21.7
2015-Aug-27 19:58 325 22.2
2015-Aug-27 19:53 035 0 gusting 4 22.2
2015-Aug-27 19:28 337 22.2
2015-Aug-27 19:23 025 22.2
2015-Aug-27 18:58 027 0 gusting 3 21.7
2015-Aug-27 18:53 327 21.7
2015-Aug-27 18:28 026 21.7
2015-Aug-27 18:23 026 1 gusting 4 21.7
2015-Aug-27 17:58 355 21.7
2015-Aug-27 17:53 330 21.7
2015-Aug-27 17:28 346 0 gusting 6 21.7
2015-Aug-27 17:23 21.7
2015-Aug-27 16:58 342 1 gusting 4 22.2
2015-Aug-27 16:53 329 22.2
2015-Aug-27 16:28 333 22.8
2015-Aug-27 16:23 053 3 gusting 6 22.8
2015-Aug-27 15:58 026 2 gusting 6 22.8
2015-Aug-27 15:53 22.8
2015-Aug-27 15:28 034 3 gusting 6 23.3
2015-Aug-27 15:23 018 5 gusting 8 23.3
2015-Aug-27 14:58 040 1 gusting 6 23.3
2015-Aug-27 14:53 037 23.3
2015-Aug-27 14:28 041 4 gusting 5 23.9
2015-Aug-27 14:23 028 4 gusting 10 23.9
2015-Aug-27 13:58 034 2 gusting 6 23.9
2015-Aug-27 13:53 23.9
2015-Aug-27 13:28 046 1 gusting 4 23.9
2015-Aug-27 13:23 040 23.9
2015-Aug-27 12:58 035 3 gusting 6 23.9
2015-Aug-27 12:53 040 2 gusting 3 23.9
2015-Aug-27 12:28 040 4 gusting 6 24.4
2015-Aug-27 12:23 037 4 gusting 6 24.4
2015-Aug-27 11:58 038 24.4
2015-Aug-27 11:53 016 24.4
2015-Aug-27 11:28 049 24.4
2015-Aug-27 11:23 049 24.4
2015-Aug-27 10:58 019 24.4
2015-Aug-27 10:53 24.4
2015-Aug-27 10:28 033 24.4
2015-Aug-27 10:23 032 24.4
2015-Aug-27 09:58 248 24.4
2015-Aug-27 09:53 248 24.4
2015-Aug-27 09:28 245 25.0
2015-Aug-27 09:23 245 25.0
2015-Aug-27 08:58 244 25.0
2015-Aug-27 08:53 242 25.0
2015-Aug-27 08:28 236 25.0
2015-Aug-27 08:23 219 25.0
2015-Aug-27 07:58 329 25.6
2015-Aug-27 07:53 233 25.6
2015-Aug-27 07:28 208 26.1
2015-Aug-27 07:23 216 26.1
2015-Aug-27 06:58 290 26.7
2015-Aug-27 06:53 291 26.7
2015-Aug-27 06:28 325 26.7
2015-Aug-27 06:23 029 26.7
2015-Aug-27 05:58 344 27.2
2015-Aug-27 05:53 344 27.2
2015-Aug-27 05:28 279 27.2
2015-Aug-27 05:23 279 27.2
2015-Aug-27 04:58 173 27.8
2015-Aug-27 04:53 302 27.8
2015-Aug-27 04:28 232 27.8
2015-Aug-27 04:23 232 28.3
2015-Aug-27 03:58 022 27.8
2015-Aug-27 03:53 019 27.8
2015-Aug-27 03:28 355 28.3
2015-Aug-27 03:23 342 28.3
2015-Aug-27 02:58 021 27.8
2015-Aug-27 02:53 336 27.8
2015-Aug-27 02:28 014 5 gusting 6 27.8
2015-Aug-27 02:23 315 1 27.8
2015-Aug-27 01:58 013 26.7
2015-Aug-27 01:53 346 26.7
2015-Aug-27 01:28 355 26.1
2015-Aug-27 01:23 037 1 gusting 6 26.1
2015-Aug-27 00:58 348 0 gusting 4 25.6
2015-Aug-27 00:53 346 25.6
2015-Aug-27 00:28 036 0 gusting 5 25.0
2015-Aug-27 00:23 034 0 gusting 0 25.0
2015-Aug-26 23:58 017 1 gusting 6 24.4
2015-Aug-26 23:53 323 24.4
2015-Aug-26 23:28 331 2 gusting 7 23.9
2015-Aug-26 23:23 005 3 gusting 7 23.9
2015-Aug-26 22:58 323 1 23.3
2015-Aug-26 22:53 254 22.8
2015-Aug-26 22:28 332 0 gusting 5 22.2
2015-Aug-26 22:23 024 1 gusting 6 22.2
2015-Aug-26 21:58 022 0 gusting 4 21.7
2015-Aug-26 21:53 051 21.7
2015-Aug-26 21:28 339 21.1
2015-Aug-26 21:23 338 1 gusting 4 21.1
2015-Aug-26 20:58 323 20.6
2015-Aug-26 20:53 324 20.6
2015-Aug-26 20:28 330 20.6
2015-Aug-26 20:23 355 20.6
2015-Aug-26 19:58 355 20.6
2015-Aug-26 19:53 355 20.6
2015-Aug-26 19:28 355 20.6
2015-Aug-26 19:23 355 20.6
2015-Aug-26 18:58 355 20.6
2015-Aug-26 18:53 355 20.6
2015-Aug-26 18:28 355 20.6
2015-Aug-26 18:23 355 20.6
2015-Aug-26 17:58 355 20.6
2015-Aug-26 17:53 355 20.6
2015-Aug-26 17:28 355 20.6
2015-Aug-26 17:23 355 20.6
2015-Aug-26 16:58 355 20.6
2015-Aug-26 16:53 355 20.6
2015-Aug-26 16:28 033 20.6
2015-Aug-26 16:23 026 0 gusting 3 20.6
2015-Aug-26 15:58 345 20.6
2015-Aug-26 15:53 345 20.6
2015-Aug-26 15:28 355 20.6
2015-Aug-26 15:23 350 20.6
2015-Aug-26 14:58 034 20.6
2015-Aug-26 14:53 350 20.6
2015-Aug-26 14:28 015 20.6
2015-Aug-26 14:23 320 20.6